TNM weather

Teniente Rodolfo Marsh Martin Base
Isla Rey Jorge, Antarctica

Public forecast

Using degrees Celsius for public forecast. Weather courtesy of forecast.io.

METAR (pilot weather report)

Retrieved 2019/04/22 12:00 UTC (3 minutes ago):

SCRM 221200Z 27011KT 9999 BKN017 M02/M05 Q1001 NOSIG

TAF (pilot weather forecast)

Forecast is more than 12 hours old.

Retrieved 2017/03/26 11:49 UTC (2 years ago):

TAF COR SCCI 2611BANX 261149 SCEFYMYX SAAA03 SCEF 261200 METAR SCRM 261200Z 26010KT 8000 OVC005 02/02 Q1006